Lefor, ND

8:24 PM MDT on August 31, 2016 (GMT -0600)
Dickinson Municipal

Weather History for KDIK - December, 2013

Change the Weather History Date:

Monday, December 2, 2013

  Actual Average Record
Temperature  
Mean Temperature 28 °F 22 °F  
Max Temperature 37 °F 32 °F 61 °F (2012)
Min Temperature 18 °F 12 °F -25 °F (1897)
Degree Days  
Heating Degree Days 37 43  
Month to date heating degree days 64 86  
Since 1 July heating degree days 2005 2163  
Cooling Degree Days 0 0  
Month to date cooling degree days 0 0  
Year to date cooling degree days 386 419  
Moisture  
Dew Point 25 °F    
Average Humidity 90    
Maximum Humidity 96    
Minimum Humidity 84    
Precipitation  
Precipitation T in 0.01 in 0.40 in (1898)
Month to date precipitation 0.09 0.02  
Year to date precipitation 21.09 15.55  
Sea Level Pressure  
Sea Level Pressure 29.59 in    
Wind  
Wind Speed 11 mph (NNE)    
Max Wind Speed 22 mph    
Max Gust Speed 29 mph    
Visibility 5 miles    
Events Fog , Snow    
T = Trace of Precipitation, MM = Missing Value Source: NWS Daily Summary

Daily Weather History Graph

Daily Weather History Graph

Search for Another Location

Airport or City:

Trip Planner

Search our weather history database for the weather conditions in past years. The results will help you decide how hot, cold, wet, or windy it might be!

Date:

Astronomy

Dec. 02, 2013 Rise Set
Actual Time 7:17 AM MST 4:04 PM MST
Civil Twilight 6:42 AM MST 4:38 PM MST
Nautical Twilight 6:04 AM MST 5:16 PM MST
Astronomical Twilight 5:27 AM MST 5:53 PM MST
Moon 6:42 AM MST (12/2) 4:11 PM MST (12/2)
Length of Visible Light 9h 56m
Length of Day
8h 47m
Waning Crescent, 0% of the Moon is Illuminated
Dec 2
Waning Crescent
Dec 2
New
Dec 9
First Quarter
Dec 17
Full
Dec 25
Last Quarter

Hourly Weather History & Observations

Time (MST) Temp. Windchill Dew Point Humidity Pressure Visibility Wind Dir Wind Speed Gust Speed Precip Events Conditions
12:56 AM 37.0 °F 33.3 °F 35.1 °F 93% 29.55 in 10.0 mi SSE 4.6 mph - 0.01 in   Overcast
1:56 AM 37.0 °F - 35.1 °F 93% 29.54 in 10.0 mi Calm Calm - N/A   Overcast
2:15 AM 36.0 °F 33.3 °F 34.0 °F 93% 29.51 in 10.0 mi South 3.5 mph - N/A   Overcast
2:56 AM 35.1 °F 31.0 °F 32.0 °F 89% 29.52 in 10.0 mi SSW 4.6 mph - N/A   Mostly Cloudy
3:56 AM 34.0 °F 27.2 °F 30.9 °F 89% 29.51 in 10.0 mi West 8.1 mph - N/A   Mostly Cloudy
4:56 AM 33.1 °F 27.7 °F 30.9 °F 92% 29.49 in 10.0 mi West 5.8 mph - N/A   Scattered Clouds
5:56 AM 32.0 °F 24.8 °F 30.0 °F 92% 29.50 in 10.0 mi West 8.1 mph - N/A   Clear
6:20 AM 33.1 °F 25.5 °F 30.9 °F 92% 29.47 in 10.0 mi West 9.2 mph - N/A   Mostly Cloudy
6:52 AM 33.8 °F 28.6 °F 30.2 °F 87% 29.48 in 10.0 mi WNW 5.8 mph - N/A   Overcast
6:56 AM 33.1 °F 27.7 °F 30.9 °F 92% 29.53 in 10.0 mi WNW 5.8 mph - N/A   Overcast
7:09 AM 33.1 °F 26.9 °F 30.9 °F 92% 29.48 in 10.0 mi West 6.9 mph - N/A   Overcast
7:56 AM 34.0 °F 28.8 °F 32.0 °F 92% 29.52 in 10.0 mi West 5.8 mph - N/A   Overcast
8:13 AM 34.0 °F 28.0 °F 32.0 °F 92% 29.49 in 10.0 mi WNW 6.9 mph - N/A   Overcast
8:32 AM 34.0 °F 28.8 °F 32.0 °F 92% 29.49 in 1.8 mi NW 5.8 mph - N/A   Overcast
8:42 AM 34.0 °F 28.8 °F 32.0 °F 92% 29.48 in 0.2 mi NW 5.8 mph - N/A Fog Fog
8:56 AM 34.0 °F 29.8 °F 32.0 °F 92% 29.53 in 0.2 mi NNW 4.6 mph - N/A Fog Fog
9:56 AM 35.1 °F 31.0 °F 33.1 °F 92% 29.57 in 0.2 mi NNW 4.6 mph - N/A Fog Fog
10:05 AM 35.1 °F 30.1 °F 33.1 °F 92% 29.51 in 0.5 mi North 5.8 mph - N/A Fog Fog
10:26 AM 34.0 °F 27.2 °F 32.0 °F 92% 29.52 in 1.2 mi NNE 8.1 mph - N/A   Overcast
10:56 AM 33.1 °F 24.9 °F 30.9 °F 92% 29.57 in 1.5 mi NE 10.4 mph - N/A   Overcast
11:03 AM 32.0 °F 22.5 °F 30.0 °F 92% 29.51 in 0.2 mi NNE 12.7 mph - N/A Fog Fog
11:56 AM 30.0 °F 19.5 °F 28.0 °F 92% 29.57 in 0.2 mi NE 13.8 mph - N/A Fog Light Freezing Fog
12:20 PM 28.9 °F 17.7 °F 27.0 °F 92% 29.51 in 0.5 mi NNE 15.0 mph - N/A Fog Light Freezing Fog
12:56 PM 28.0 °F 18.6 °F 26.1 °F 92% 29.60 in 0.8 mi NE 10.4 mph - N/A   Overcast
1:36 PM 27.0 °F 15.6 °F 25.0 °F 92% 29.54 in 1.0 mi NE 13.8 mph - N/A   Overcast
1:56 PM 26.1 °F 15.6 °F 24.1 °F 92% 29.61 in 1.2 mi NE 11.5 mph - N/A   Overcast
2:56 PM 25.0 °F 13.6 °F 21.9 °F 88% 29.64 in 1.0 mi ENE 12.7 mph - 0.00 in Snow Light Snow
3:30 PM 24.1 °F 11.5 °F 21.0 °F 88% 29.57 in 2.0 mi NE 15.0 mph - 0.00 in   Overcast
3:56 PM 23.0 °F 9.6 °F 19.9 °F 88% 29.67 in 3.0 mi ENE 16.1 mph - 0.00 in   Overcast
4:56 PM 21.9 °F 8.7 °F 19.0 °F 89% 29.69 in 3.0 mi ENE 15.0 mph - N/A   Overcast
5:56 PM 19.9 °F 5.7 °F 17.1 °F 89% 29.71 in 3.0 mi NE 16.1 mph - 0.00 in Snow Light Snow
6:31 PM 19.9 °F 6.2 °F 16.0 °F 85% 29.64 in 2.5 mi ENE 15.0 mph - 0.00 in Snow Light Snow
6:40 PM 19.9 °F 6.2 °F 16.0 °F 85% 29.65 in 3.0 mi NE 15.0 mph - 0.00 in Snow Light Snow
6:46 PM 19.9 °F 7.3 °F 16.0 °F 85% 29.65 in 4.0 mi ENE 12.7 mph - 0.00 in Snow Light Snow
6:56 PM 19.0 °F 5.6 °F 16.0 °F 88% 29.74 in 2.0 mi NE 13.8 mph 21.9 mph 0.00 in Snow Light Snow
7:07 PM 19.0 °F 3.6 °F 16.0 °F 88% 29.65 in 1.8 mi NE 18.4 mph 21.9 mph 0.00 in Snow Light Snow
7:29 PM 19.0 °F 3.2 °F 15.1 °F 85% 29.64 in 2.0 mi NE 19.6 mph 25.3 mph 0.00 in Snow Light Snow
7:40 PM 19.0 °F 4.0 °F 15.1 °F 85% 29.66 in 7.0 mi ENE 17.3 mph 24.2 mph 0.00 in Snow Light Snow
7:56 PM 19.0 °F 4.0 °F 15.1 °F 85% 29.75 in 7.0 mi NE 17.3 mph - 0.00 in   Overcast
8:56 PM 19.0 °F 4.5 °F 16.0 °F 88% 29.77 in 7.0 mi ENE 16.1 mph - N/A   Overcast
9:56 PM 18.0 °F 1.3 °F 15.1 °F 88% 29.78 in 6.0 mi NE 20.7 mph - N/A   Overcast
10:56 PM 18.0 °F 3.1 °F 14.0 °F 84% 29.81 in 10.0 mi NE 16.1 mph - N/A   Overcast
11:56 PM 18.0 °F 3.1 °F 15.1 °F 88% 29.83 in 9.0 mi ENE 16.1 mph - N/A   Overcast